Location: Unspecified
(40.7945°N, 111.1337°W)
Time: 00:00:25
(UTC-06:00)

Cosmos 1674 - Pass Details

Date: 29 March 2019
Orbit: 497 x 518 km, 82.5° (Epoch: 24 April)

Event Time Altitude Azimuth Distance (km) Brightness Sun altitude
Rises 21:39:43 0° 333° (NNW) 2,617 7.1 -21.5°
Reaches altitude 10° 21:42:28 10° 311° (NW) 1,730 6.4 -21.9°
Maximum altitude 21:44:50 16° 273° (W) 1,394 5.7 -22.3°
Drops below altitude 10° 21:47:11 10° 234° (SW) 1,729 5.7 -22.7°
Sets 21:49:56 0° 212° (SSW) 2,613 6.3 -23.2°
